Location: *
(49.9853°N, 3.5569°E)
Time: 05:01:07
(UTC+00:00)

Cosmos 1805 - Pass Details

Date: 22 September 2019
Orbit: 525 x 532 km, 82.5° (Epoch: 14 October)

Event Time Altitude Azimuth Distance (km) Brightness Sun altitude
Exits shadow 19:07:08 20° 138° (SE) 1,273 4.7 -13.9°
Maximum altitude 19:09:04 31° 91° (E) 955 4.0 -14.2°
Drops below altitude 10° 19:12:31 10° 29° (NNE) 1,782 5.8 -14.7°
Sets 19:14:50 0° 19° (NNE) 2,676 6.8 -15.1°
